INMARSAT 6-F1

Last updated on Wed Jul 16 2025 00:02:50 GMT+0000 (Coordinated Universal Time)

1 50319U 21128A 25196.63081087 -.00000164 00000+0 00000+0 0 9998 2 50319 0.0195 63.3397 0000309 160.9233 20.3216 1.00268516 12884
UTC large
Height (km)
Speed (km/s)
/
Latitude / Longitude
Inclination (degrees)
Orbital Period (minutes)
Azimuth
Elevation
Range (km)
Doppler Factor

Next 0 passes for location: London (51.5072 / 0.1276)

Sorry there are no passes over London.